Latest Weather Observations for Dunalley

IDT60801

Issued at 10:02 am EDT Wednesday 22 February 2017 (issued every 30 minutes, with the page automatically refreshed every 10 minutes)

About weather observations | Map of weather stations | Latest weather observations for TAS | Other Formats
Station Details ID: 094254 Name: DUNALLEY (STROUD POINT) Lat: -42.90 Lon: 147.79 Height: 12.43 m
Data from the previous 72 hours. | See also: Recent months at Dunalley
Date/Time
EDT
Temp
°C
App
Temp
°C
Dew
Point
°C
Rel
Hum
%
Delta-T
°C
Wind Press
QNH
hPa
Press
MSL
hPa
Rain since
9am
mm
Dir  Spd
km/h
Gust
km/h
Spd
kts
Gust
kts
22/10:00am 18.0 15.2 9.9 59 4.3 NE 15 20 8 11 1016.3 1016.3 0.0
22/09:30am 17.8 15.4 10.2 61 4.0 NNE 13 19 7 10 1016.5 1016.5 0.0
22/09:00am 16.4 13.6 10.0 66 3.4 NNE 15 20 8 11 1016.7 1016.7 0.0
22/08:30am 15.7 12.5 9.8 68 3.1 NNE 17 24 9 13 1016.6 1016.6 0.0
22/08:00am 16.4 14.2 10.7 69 3.0 NNE 13 17 7 9 1016.4 1016.4 0.0
22/07:30am 15.6 13.4 12.2 80 1.9 N 15 20 8 11 1016.5 1016.5 0.0
22/07:00am 14.9 13.1 12.0 83 1.6 NNE 13 19 7 10 1016.5 1016.5 0.0
22/06:30am 15.0 11.8 12.0 82 1.6 NNE 20 28 11 15 1016.3 1016.3 0.0
22/06:00am 15.1 10.4 12.1 82 1.6 NNE 28 37 15 20 1016.3 1016.3 0.0
22/05:30am 14.8 11.2 11.8 82 1.6 NE 22 32 12 17 1016.4 1016.4 0.0
22/05:00am 14.9 10.5 11.7 81 1.7 NE 26 32 14 17 1016.5 1016.5 0.0
22/04:30am 14.9 11.2 11.5 80 1.8 NNE 22 30 12 16 1017.0 1017.0 0.0
22/04:00am 14.8 11.4 11.2 79 1.9 NNE 20 24 11 13 1017.4 1017.4 0.0
22/03:30am 14.8 11.4 11.2 79 1.9 NNE 20 24 11 13 1017.6 1017.6 0.0
22/03:00am 14.8 10.6 11.0 78 2.0 NNE 24 32 13 17 1017.9 1017.9 0.0
22/02:30am 14.6 10.7 10.8 78 2.0 NNE 22 30 12 16 1017.9 1017.9 0.0
22/02:00am 14.6 10.6 10.4 76 2.2 NNE 22 28 12 15 1018.3 1018.3 0.0
22/01:30am 14.6 11.0 10.4 76 2.2 NE 20 24 11 13 1018.4 1018.4 0.0
22/01:00am 14.8 11.4 10.6 76 2.2 NE 19 28 10 15 1019.1 1019.1 0.0
22/12:30am 14.0 11.7 10.4 79 1.9 ENE 13 17 7 9 1019.3 1019.3 0.0
22/12:00am 13.7 12.0 9.9 78 2.0 ENE 9 13 5 7 1019.6 1019.6 0.0
 
Date/Time
EDT
Temp
°C
App
Temp
°C
Dew
Point
°C
Rel
Hum
%
Delta-T
°C
Wind Press
QNH
hPa
Press
MSL
hPa
Rain since
9am
mm
Dir  Spd
km/h
Gust
km/h
Spd
kts
Gust
kts
21/11:30pm 14.0 12.6 9.6 75 2.3 NE 7 11 4 6 1019.8 1019.8 0.0
21/11:00pm 14.4 12.3 9.6 73 2.5 NE 11 17 6 9 1019.8 1019.8 0.0
21/10:30pm 14.6 12.5 9.6 72 2.6 ENE 11 15 6 8 1020.0 1020.0 0.0
21/10:00pm 14.8 11.5 9.6 71 2.7 NE 17 20 9 11 1020.2 1020.2 0.0
21/09:30pm 15.1 13.0 9.9 71 2.7 ENE 11 15 6 8 1019.9 1019.9 0.0
21/09:00pm 15.4 13.7 9.7 69 2.9 E 9 13 5 7 1019.9 1019.9 0.0
21/08:30pm 15.3 13.5 9.4 68 3.0 ENE 9 15 5 8 1019.5 1019.5 0.0
21/08:00pm 15.6 13.8 9.3 66 3.2 ENE 9 15 5 8 1019.3 1019.3 0.0
21/07:30pm 15.9 13.2 9.1 64 3.5 NE 13 17 7 9 1018.9 1018.9 0.0
21/07:00pm 16.6 14.6 8.8 60 4.0 E 9 19 5 10 1018.3 1018.3 0.0
21/06:30pm 16.9 13.9 9.3 61 4.0 S 15 17 8 9 1018.2 1018.2 0.0
21/06:00pm 17.9 14.8 8.7 55 4.7 SSE 15 19 8 10 1017.9 1017.9 0.0
21/05:30pm 18.4 13.8 9.7 57 4.6 S 24 28 13 15 1017.2 1017.2 0.0
21/05:00pm 19.0 14.5 8.6 51 5.4 S 22 26 12 14 1017.2 1017.2 0.0
21/04:30pm 19.8 16.5 6.5 42 6.7 SW 13 22 7 12 1016.9 1016.9 0.0
21/04:00pm 19.4 16.5 4.4 37 7.2 WSW 9 13 5 7 1016.9 1016.9 0.0
21/03:30pm 19.4 16.7 5.5 40 6.8 WSW 9 13 5 7 1017.0 1017.0 0.0
21/03:00pm 19.2 16.0 5.3 40 6.8 W 11 17 6 9 1017.1 1017.1 0.0
21/02:30pm 19.5 15.4 6.3 42 6.6 WSW 17 19 9 10 1017.3 1017.3 0.0
21/02:00pm 18.6 14.9 6.1 44 6.2 WSW 15 20 8 11 1017.5 1017.5 0.0
21/01:30pm 17.8 14.6 5.1 43 6.1 WSW 11 15 6 8 1017.6 1017.6 0.0
21/01:00pm 17.4 13.9 5.4 45 5.8 WSW 13 19 7 10 1017.7 1017.7 0.0
21/12:30pm 17.4 12.6 5.4 45 5.8 SW 20 26 11 14 1017.8 1017.8 0.0
21/12:00pm 17.1 12.1 6.3 49 5.3 SW 22 30 12 16 1017.8 1017.8 0.0
21/11:30am 16.9 11.1 6.4 50 5.2 WSW 26 35 14 19 1017.9 1017.9 0.0
21/11:00am 15.9 10.4 5.8 51 4.8 WSW 24 32 13 17 1017.9 1017.9 0.0
21/10:30am 16.1 10.2 6.0 51 4.9 WSW 26 32 14 17 1017.5 1017.5 0.0
21/10:00am 15.2 7.5 5.4 52 4.6 WSW 35 43 19 23 1017.6 1017.6 0.0
21/09:30am 14.8 8.0 5.1 52 4.6 W 30 37 16 20 1017.2 1017.2 0.0
21/09:00am 15.0 8.2 6.8 58 4.0 WSW 32 41 17 22 1017.1 1017.1 3.4
21/08:30am 14.4 7.5 6.5 59 3.8 WSW 32 39 17 21 1016.9 1016.9 3.4
21/08:00am 13.9 8.4 7.4 65 3.2 W 26 33 14 18 1016.3 1016.3 3.4
21/07:30am 13.8 7.8 7.1 64 3.3 W 28 39 15 21 1015.8 1015.8 3.4
21/07:00am 13.8 6.3 6.4 61 3.5 WSW 35 41 19 22 1015.3 1015.3 3.4
21/06:30am 13.6 5.5 6.9 64 3.2 WSW 39 46 21 25 1014.8 1014.8 3.4
21/06:00am 13.5 5.3 6.4 62 3.4 WSW 39 48 21 26 1014.1 1014.1 3.4
21/05:30am 13.4 5.3 7.2 66 3.0 WSW 39 46 21 25 1014.0 1014.0 3.4
21/05:00am 13.4 6.0 6.7 64 3.2 W 35 43 19 23 1013.7 1013.7 3.4
21/04:30am 13.3 6.4 7.1 66 3.0 WSW 33 41 18 22 1013.4 1013.4 3.4
21/04:00am 13.7 6.3 6.8 63 3.3 WSW 35 41 19 22 1013.2 1013.2 3.4
21/03:30am 13.6 6.7 7.4 66 3.0 W 33 37 18 20 1013.2 1013.2 3.4
21/03:00am 13.9 5.8 7.0 63 3.4 WSW 39 44 21 24 1013.0 1013.0 3.4
21/02:30am 13.8 5.7 6.9 63 3.3 WSW 39 48 21 26 1012.7 1012.7 3.4
21/02:00am 13.8 5.5 7.6 66 3.1 WSW 41 50 22 27 1012.6 1012.6 3.4
21/01:30am 13.6 5.7 7.8 68 2.9 WSW 39 48 21 26 1012.5 1012.5 3.4
21/01:00am 13.8 5.2 8.2 69 2.8 WSW 43 54 23 29 1012.5 1012.5 3.4
21/12:30am 13.9 5.3 8.3 69 2.8 WSW 43 52 23 28 1012.3 1012.3 3.4
21/12:00am 14.0 5.5 8.6 70 2.7 SW 43 54 23 29 1012.1 1012.1 3.4
 
Date/Time
EDT
Temp
°C
App
Temp
°C
Dew
Point
°C
Rel
Hum
%
Delta-T
°C
Wind Press
QNH
hPa
Press
MSL
hPa
Rain since
9am
mm
Dir  Spd
km/h
Gust
km/h
Spd
kts
Gust
kts
20/11:30pm 13.5 5.7 9.6 77 2.0 WSW 41 46 22 25 1012.2 1012.2 3.4
20/11:00pm 13.6 5.8 9.6 77 2.0 SW 41 50 22 27 1012.1 1012.1 3.4
20/10:30pm 14.3 7.0 8.9 70 2.7 SW 37 46 20 25 1011.9 1011.9 3.4
20/10:00pm 14.3 7.1 9.3 72 2.6 SW 37 48 20 26 1011.9 1011.9 3.4
20/09:30pm 14.2 7.3 8.8 70 2.7 SW 35 43 19 23 1011.5 1011.5 3.4
20/09:00pm 14.3 7.3 10.1 76 2.2 SW 37 46 20 25 1011.0 1011.0 3.4
20/08:30pm 14.7 8.0 9.5 71 2.7 SW 35 46 19 25 1010.5 1010.5 3.4
20/08:00pm 14.6 7.6 9.8 73 2.5 SSW 37 43 20 23 1010.1 1010.1 3.4
20/07:30pm 14.9 7.6 10.3 74 2.4 SSW 39 50 21 27 1009.7 1009.7 3.4
20/07:00pm 15.0 8.8 10.2 73 2.5 SSW 33 43 18 23 1009.2 1009.2 3.4
20/06:30pm 15.1 8.9 10.1 72 2.6 SSW 33 46 18 25 1008.8 1008.8 3.4
20/06:00pm 15.2 9.0 10.0 71 2.7 SSW 33 39 18 21 1008.5 1008.5 3.4
20/05:30pm 15.8 9.6 9.9 68 3.1 SSW 33 41 18 22 1008.1 1008.1 3.4
20/05:00pm 15.4 9.6 10.8 74 2.4 SSW 32 41 17 22 1007.8 1007.8 3.4
20/04:30pm 15.5 10.5 11.1 75 2.3 S 28 32 15 17 1007.6 1007.6 3.4
20/04:00pm 15.5 11.5 13.0 85 1.4 W 26 30 14 16 1007.3 1007.3 3.4
20/03:30pm 14.1 9.1 12.3 89 1.0 WSW 30 33 16 18 1007.4 1007.4 3.4
20/03:00pm 13.0 9.8 11.1 88 1.0 SSW 19 24 10 13 1007.7 1007.7 3.2
20/02:30pm 14.3 10.8 12.2 87 1.1 SSW 22 30 12 16 1007.6 1007.6 1.8
20/02:00pm 14.7 10.6 12.7 88 1.1 WSW 26 32 14 17 1007.3 1007.3 1.6
20/01:30pm 14.0 9.7 12.0 88 1.1 SW 26 32 14 17 1007.4 1007.4 1.4
20/01:00pm 15.2 9.4 11.6 79 1.9 SW 33 48 18 26 1007.2 1007.2 0.0
20/12:59pm 15.2 9.6 11.6 79 1.9 SW 32 48 17 26 1007.2 1007.2 0.0
20/12:30pm 16.7 12.5 11.2 70 3.0 SW 24 30 13 16 1007.2 1007.2 0.0
20/12:00pm 16.8 13.7 11.7 72 2.8 SW 19 24 10 13 1007.5 1007.5 0.0
20/11:30am 16.3 13.0 11.5 73 2.6 WSW 20 24 11 13 1007.7 1007.7 0.0
20/11:00am 14.9 10.8 11.5 80 1.8 SW 24 28 13 15 1007.8 1007.8 0.0
20/10:30am 13.7 10.1 10.7 82 1.6 W 20 24 11 13 1007.8 1007.8 0.0
20/10:00am 13.3 10.1 10.1 81 1.7 W 17 22 9 12 1008.0 1008.0 0.0
20/09:30am 13.4 10.0 9.1 75 2.2 W 17 22 9 12 1007.9 1007.9 0.0
20/09:00am 12.4 9.3 8.7 78 1.8 W 15 19 8 10 1007.7 1007.7 0.0
20/08:30am 11.8 8.9 8.3 79 1.7 W 13 17 7 9 1007.8 1007.8 0.0
20/08:00am 11.6 8.8 8.5 81 1.5 W 13 19 7 10 1007.4 1007.4 0.0
20/07:30am 11.2 8.3 8.1 81 1.5 WNW 13 19 7 10 1007.3 1007.3 0.0
20/07:00am 10.8 7.4 7.7 81 1.5 WNW 15 20 8 11 1007.2 1007.2 0.0
20/06:30am 10.8 7.5 7.9 82 1.4 WNW 15 19 8 10 1006.9 1006.9 0.0
20/06:00am 10.8 7.8 7.7 81 1.5 WNW 13 17 7 9 1006.6 1006.6 0.0
20/05:30am 10.7 7.7 7.8 82 1.4 WNW 13 17 7 9 1006.6 1006.6 0.0
20/05:00am 10.6 7.6 7.8 83 1.4 WNW 13 17 7 9 1006.4 1006.4 0.0
20/04:30am 10.2 7.5 7.4 83 1.3 WNW 11 13 6 7 1006.5 1006.5 0.0
20/04:00am 10.6 8.4 7.7 82 1.4 W 9 13 5 7 1006.5 1006.5 0.0
20/03:30am 11.1 8.2 8.1 82 1.5 W 13 15 7 8 1006.3 1006.3 0.0
20/03:00am 11.7 9.2 8.4 80 1.6 WNW 11 15 6 8 1006.5 1006.5 0.0
20/02:30am 12.3 9.9 8.8 79 1.7 WNW 11 15 6 8 1006.5 1006.5 0.0
20/02:00am 12.1 9.7 8.8 80 1.7 WNW 11 15 6 8 1006.3 1006.3 0.0
20/01:30am 11.4 8.4 7.9 79 1.7 W 13 17 7 9 1006.1 1006.1 0.0
20/01:00am 11.5 8.6 8.2 80 1.6 WNW 13 20 7 11 1006.4 1006.4 0.0
20/12:30am 11.5 8.2 8.2 80 1.6 N 15 24 8 13 1006.1 1006.1 0.0
20/12:00am 11.4 9.3 8.1 80 1.6 ENE 9 13 5 7 1005.9 1005.9 0.0
 
Date/Time
EDT
Temp
°C
App
Temp
°C
Dew
Point
°C
Rel
Hum
%
Delta-T
°C
Wind Press
QNH
hPa
Press
MSL
hPa
Rain since
9am
mm
Dir  Spd
km/h
Gust
km/h
Spd
kts
Gust
kts
19/11:30pm 12.7 12.3 8.2 74 2.2 CALM 0 0 0 0 1005.9 1005.9 0.0
19/11:00pm 13.2 12.3 9.1 76 2.1 ENE 4 6 2 3 1006.4 1006.4 0.0
19/10:30pm 13.6 13.0 8.9 73 2.4 ENE 2 4 1 2 1006.4 1006.4 0.0
19/10:00pm 13.6 13.1 8.0 69 2.8 CALM 0 0 0 0 1006.2 1006.2 0.0
19/09:30pm 13.5 12.7 8.1 70 2.7 ENE 2 4 1 2 1006.0 1006.0 0.0
19/09:00pm 13.4 12.5 7.8 69 2.8 ENE 2 4 1 2 1005.8 1005.8 0.0
19/08:30pm 14.1 11.5 7.9 66 3.1 E 11 17 6 9 1005.2 1005.2 0.0
19/08:00pm 14.4 11.5 8.1 66 3.2 ENE 13 15 7 8 1004.6 1004.6 0.0
19/07:30pm 14.8 12.6 7.8 63 3.5 ENE 9 13 5 7 1004.4 1004.4 0.0
19/07:00pm 15.1 11.5 6.7 57 4.1 ENE 15 20 8 11 1004.2 1004.2 0.0
19/06:30pm 16.0 11.6 6.4 53 4.7 NE 19 24 10 13 1003.9 1003.9 0.0
19/06:00pm 17.7 13.3 7.2 50 5.3 ENE 20 28 11 15 1003.7 1003.7 0.0
19/05:30pm 17.9 13.3 6.4 47 5.7 ENE 20 30 11 16 1003.6 1003.6 0.0
19/05:00pm 18.1 13.8 6.9 48 5.6 ENE 19 24 10 13 1003.4 1003.4 0.0
19/04:30pm 16.1 12.5 6.8 54 4.6 NE 15 19 8 10 1003.5 1003.5 0.0
19/04:00pm 16.3 13.1 6.7 53 4.7 NE 13 22 7 12 1003.5 1003.5 0.0
19/03:30pm 18.5 16.2 7.6 49 5.5 S 9 17 5 9 1003.5 1003.5 0.0
19/03:00pm 17.8 15.3 6.7 48 5.5 ENE 9 20 5 11 1003.5 1003.5 0.0
19/02:30pm 18.4 14.7 6.3 45 6.0 NE 15 22 8 12 1003.6 1003.6 0.0
19/02:00pm 16.1 12.5 6.8 54 4.6 ENE 15 22 8 12 1003.7 1003.7 0.0
19/01:30pm 17.4 13.1 7.2 51 5.1 NE 19 24 10 13 1003.8 1003.8 0.0
19/01:00pm 18.1 14.2 6.9 48 5.6 ENE 17 22 9 12 1003.8 1003.8 0.0
19/12:30pm 16.9 12.8 6.4 50 5.2 ENE 17 22 9 12 1004.0 1004.0 0.0
19/12:00pm 17.2 13.3 7.3 52 5.0 ENE 17 22 9 12 1004.3 1004.3 0.0
19/11:30am 15.0 11.0 6.8 58 4.0 ENE 17 24 9 13 1004.5 1004.5 0.0
19/11:00am 16.1 12.7 7.6 57 4.3 ENE 15 20 8 11 1004.5 1004.5 0.0
19/10:30am 14.3 10.8 7.4 63 3.4 ENE 15 19 8 10 1004.4 1004.4 0.0

Other Formats:

Comma delimited format used in spreadsheet applications
http://www.bom.gov.au/fwo/IDT60801/IDT60801.94951.axf

JavaScript Object Notation format (JSON) in row-major order
http://www.bom.gov.au/fwo/IDT60801/IDT60801.94951.json